{"data":{"norad_id":43215,"epoch":"2026-05-25T04:26:10.169088Z","epoch_age_seconds":59855,"freshness":"FRESH","line1":"1 43215U 18020A   26145.18483992  .00001623  00000+0  80463-4 0  9994","line2":"2 43215  97.4452 152.8978 0001660  88.9807 271.1617 15.19157580457510","mean_motion":15.1915758,"eccentricity":0.000166,"inclination_deg":97.4452,"raan_deg":152.8978,"arg_perigee_deg":88.9807,"mean_anomaly_deg":271.1617,"bstar":8.0463e-5,"rev_number":45751,"period_min":94.789376622799,"perigee_km":507.24213530372,"apogee_km":509.52846070665,"semimajor_km":6886.5222980052,"source":"CELESTRAK","updated_at":"2026-05-25T13:37:55.792188Z"}}